DW5684 Weather Reports


Display with metric or nautical units.
time (UTC)temp
F
wind
direction
speed
MPH
gust
MPH
rain 1hr
in
rain 24hr
in
rain mn
in
humidity
%
barometer
mb
20260503203329 80 191 3.0 12.0 0.00 0.00 0.00 41 1013.2
20260503202824 80 212 4.0 9.0 0.00 0.00 0.00 41 1013.3
20260503202317 80 203 4.0 10.0 0.00 0.00 0.00 41 1013.3
20260503201812 80 184 4.0 10.0 0.00 0.00 0.00 42 1013.3
20260503201311 80 185 3.0 11.0 0.00 0.00 0.00 42 1013.4
20260503200806 80 221 3.0 11.0 0.00 0.00 0.00 41 1013.6
20260503200321 80 217 2.0 7.0 0.00 0.00 0.00 43 1013.6
20260503195815 80 213 4.0 9.0 0.00 0.00 0.00 42 1013.6
20260503195309 80 182 5.0 9.0 0.00 0.00 0.00 40 1013.7
20260503194824 80 226 1.0 9.0 0.00 0.00 0.00 45 1013.8
20260503194316 79 230 2.0 9.0 0.00 0.00 0.00 43 1013.8
20260503193811 80 153 4.0 9.0 0.00 0.00 0.00 42 1013.9
20260503193306 79 221 3.0 9.0 0.00 0.00 0.00 43 1014.0
20260503192824 79 172 4.0 11.0 0.00 0.00 0.00 44 1014.1
20260503192338 79 205 2.0 11.0 0.00 0.00 0.00 47 1014.2
20260503191812 79 196 4.0 9.0 0.00 0.00 0.00 42 1014.3
20260503191306 79 195 3.0 9.0 0.00 0.00 0.00 44 1014.4
20260503190801 79 220 2.0 10.0 0.00 0.00 0.00 45 1014.4
20260503190316 78 236 4.0 12.0 0.00 0.00 0.00 41 1014.5
20260503185831 79 219 2.0 11.0 0.00 0.00 0.00 45 1014.6
20260503185305 78 213 4.0 9.0 0.00 0.00 0.00 44 1014.6
20260503184800 78 165 3.0 9.0 0.00 0.00 0.00 47 1014.7
20260503184300 78 207 5.0 9.0 0.00 0.00 0.00 44 1014.8
20260503183816 77 222 3.0 10.0 0.00 0.00 0.00 47 1014.9
20260503183327 77 231 3.0 10.0 0.00 0.00 0.00 46 1015.0
20260503182801 77 205 2.0 9.0 0.00 0.00 0.00 48 1015.1
20260503182336 77 190 3.0 9.0 0.00 0.00 0.00 47 1015.1
20260503181830 76 215 3.0 8.0 0.00 0.00 0.00 45 1015.2
20260503181304 76 219 2.0 10.0 0.00 0.00 0.00 46 1015.3
20260503180759 76 212 3.0 10.0 0.00 0.00 0.00 49 1015.4
20260503180315 75 212 3.0 12.0 0.00 0.00 0.00 50 1015.5
20260503175814 75 210 5.0 12.0 0.00 0.00 0.00 48 1015.8
20260503175329 75 237 4.0 11.0 0.00 0.00 0.00 47 1015.8
20260503174803 75 239 6.0 11.0 0.00 0.00 0.00 47 1015.9
20260503174318 75 219 3.0 10.0 0.00 0.00 0.00 52 1016.0
20260503173813 75 233 4.0 9.0 0.00 0.00 0.00 51 1016.1
20260503173309 74 148 3.0 9.0 0.00 0.00 0.00 54 1016.3
20260503172803 74 187 3.0 9.0 0.00 0.00 0.00 52 1016.3
20260503172258 74 222 4.0 8.0 0.00 0.00 0.00 50 1016.3
20260503171817 74 229 3.0 10.0 0.00 0.00 0.00 50 1016.3
20260503171311 73 222 2.0 11.0 0.00 0.00 0.00 51 1016.4
20260503170806 73 214 2.0 9.0 0.00 0.00 0.00 51 1016.5
20260503170301 73 224 4.0 9.0 0.00 0.00 0.00 50 1016.5
20260503150805 66 207 3.0 13.0 0.00 0.00 0.00 55 1017.6
20260503150304 65 221 5.0 14.0 0.00 0.00 0.00 55 1017.5
20260503140301 61 156 3.0 11.0 0.00 0.00 0.00 58 1018.0
20260503072312 40 321 0.0 0.0 0.00 0.00 0.00 95 1019.6
20260503071807 40 321 0.0 0.0 0.00 0.00 0.00 95 1019.6
20260503071322 40 321 0.0 0.0 0.00 0.00 0.00 95 1019.7
20260503070837 40 321 0.0 0.0 0.00 0.00 0.00 95 1019.7
20260503070311 40 321 0.0 0.0 0.00 0.00 0.00 94 1019.7
20260503060317 41 321 0.0 0.0 0.00 0.00 0.00 94 1020.2
20260503054819 42 321 0.0 0.0 0.00 0.00 0.00 93 1020.3
20260503054313 42 321 0.0 0.0 0.00 0.00 0.00 93 1020.3
20260503053808 42 321 0.0 0.0 0.00 0.00 0.00 93 1020.3
20260503053321 42 321 0.0 0.0 0.00 0.00 0.00 93 1020.2
20260503052820 42 321 0.0 0.0 0.00 0.00 0.00 93 1020.3
20260503052314 43 321 0.0 0.0 0.00 0.00 0.00 93 1020.4
20260503051829 43 321 0.0 0.0 0.00 0.00 0.00 93 1020.3
20260503051322 43 321 0.0 0.0 0.00 0.00 0.00 93 1020.4
20260503050816 43 321 0.0 0.0 0.00 0.00 0.00 93 1020.4
20260503050309 43 321 0.0 0.0 0.00 0.00 0.00 93 1020.4
20260503045804 43 321 0.0 0.0 0.00 0.00 0.00 93 1020.4
20260503045338 43 321 0.0 0.0 0.00 0.00 0.00 93 1020.4
20260503044812 43 321 0.0 0.0 0.00 0.00 0.00 92 1020.4
20260503044310 43 321 0.0 0.0 0.00 0.00 0.00 92 1020.4
20260503043805 43 321 0.0 0.0 0.00 0.00 0.00 91 1020.4
20260503043340 43 321 0.0 0.0 0.00 0.00 0.00 91 1020.5
20260503042832 43 321 0.0 0.0 0.00 0.00 0.00 91 1020.4
20260503042305 43 321 0.0 0.0 0.00 0.00 0.00 90 1020.4
20260503041837 44 321 0.0 0.0 0.00 0.00 0.00 90 1020.4
20260503041310 44 321 0.0 0.0 0.00 0.00 0.00 90 1020.4
20260503040804 44 321 0.0 0.0 0.00 0.00 0.00 89 1020.4
20260503040319 45 321 0.0 0.0 0.00 0.00 0.00 89 1020.4
20260503035834 45 321 0.0 0.0 0.00 0.00 0.00 89 1020.4
20260503035306 44 321 0.0 0.0 0.00 0.00 0.00 88 1020.4
20260503034805 45 321 0.0 0.0 0.00 0.00 0.00 87 1020.4
20260503034319 45 321 0.0 0.0 0.00 0.00 0.00 88 1020.5
20260503033814 45 321 0.0 0.0 0.00 0.00 0.00 87 1020.5
20260503033328 45 321 0.0 0.0 0.00 0.00 0.00 87 1020.5
20260503032821 45 321 0.0 0.0 0.00 0.00 0.00 86 1020.5
20260503032315 45 321 0.0 0.0 0.00 0.00 0.00 86 1020.5
20260503031811 45 321 0.0 0.0 0.00 0.00 0.00 85 1020.5
20260503031306 46 321 0.0 0.0 0.00 0.00 0.00 85 1020.5
20260503030804 45 321 0.0 0.0 0.00 0.00 0.00 85 1020.5
20260503030319 46 321 0.0 0.0 0.00 0.00 0.00 84 1020.4
20260503025833 46 321 0.0 0.0 0.00 0.00 0.00 84 1020.4
20260503025307 46 321 0.0 0.0 0.00 0.00 0.00 83 1020.4
20260503024803 46 321 0.0 0.0 0.00 0.00 0.00 81 1020.4
20260503024337 46 321 0.0 0.0 0.00 0.00 0.00 81 1020.4
20260503023811 46 321 0.0 0.0 0.00 0.00 0.00 81 1020.3
20260503023326 47 321 0.0 0.0 0.00 0.00 0.00 81 1020.3
20260503022840 47 321 0.0 0.0 0.00 0.00 0.00 80 1020.2
20260503022334 47 321 0.0 0.0 0.00 0.00 0.00 80 1020.2
20260503021828 48 321 0.0 0.0 0.00 0.00 0.00 80 1020.1
20260503021325 48 321 0.0 0.0 0.00 0.00 0.00 81 1020.0
20260503020820 49 321 0.0 0.0 0.00 0.00 0.00 80 1020.0
20260503020314 49 321 0.0 0.0 0.00 0.00 0.00 79 1020.0
20260503015808 50 321 0.0 0.0 0.00 0.00 0.00 78 1020.0
20260503015305 50 321 0.0 0.0 0.00 0.00 0.00 78 1019.9
20260503014818 50 321 0.0 0.0 0.00 0.00 0.00 76 1020.0
20260503014313 50 321 0.0 0.0 0.00 0.00 0.00 71 1019.9
20260503013808 51 321 0.0 0.0 0.00 0.00 0.00 70 1019.8
20260503013324 51 321 0.0 0.0 0.00 0.00 0.00 69 1019.8
20260503012822 52 321 0.0 0.0 0.00 0.00 0.00 68 1019.7
20260503012317 52 321 0.0 0.0 0.00 0.00 0.00 68 1019.7
20260503011811 52 321 0.0 0.0 0.00 0.00 0.00 69 1019.6
20260503011325 53 321 0.0 0.0 0.00 0.00 0.00 65 1019.7
20260503010819 54 321 0.0 0.0 0.00 0.00 0.00 68 1019.6
20260503010333 55 321 0.0 0.0 0.00 0.00 0.00 65 1019.6
20260503005806 55 321 0.0 0.0 0.00 0.00 0.00 63 1019.6
20260503005322 56 321 0.0 0.0 0.00 0.00 0.00 62 1019.6
20260503004817 57 321 0.0 0.0 0.00 0.00 0.00 60 1019.7
20260503004315 58 321 0.0 0.0 0.00 0.00 0.00 54 1019.8
20260503003810 58 321 0.0 1.0 0.00 0.00 0.00 53 1019.8
20260503003305 59 311 0.0 1.0 0.00 0.00 0.00 51 1019.7
20260503002820 59 319 0.0 0.0 0.00 0.00 0.00 52 1019.6
20260503002315 59 319 0.0 0.0 0.00 0.00 0.00 50 1019.6
20260503001810 60 291 0.0 0.0 0.00 0.00 0.00 50 1019.6
20260503001324 60 309 0.0 0.0 0.00 0.00 0.00 50 1019.6
20260503000819 61 309 0.0 0.0 0.00 0.00 0.00 49 1019.6
20260503000318 61 47 0.0 0.0 0.00 0.00 0.00 47 1019.7
20260502235813 62 311 0.0 0.0 0.00 0.00 0.00 46 1019.6
20260502235309 62 303 0.0 1.0 0.00 0.00 0.00 46 1019.6
20260502234805 61 312 0.0 3.0 0.00 0.00 0.00 49 1019.6
20260502234319 61 314 0.0 1.0 0.00 0.00 0.00 52 1019.7
20260502233814 61 256 0.0 1.0 0.00 0.00 0.00 45 1019.7
20260502233309 62 334 0.0 0.0 0.00 0.00 0.00 45 1019.7
20260502232807 61 321 0.0 1.0 0.00 0.00 0.00 46 1019.7
20260502232322 62 1 0.0 3.0 0.00 0.00 0.00 46 1019.7
20260502231817 62 296 0.0 5.0 0.00 0.00 0.00 45 1019.7
20260502231312 62 330 1.0 5.0 0.00 0.00 0.00 45 1019.7
20260502230808 62 287 1.0 7.0 0.00 0.00 0.00 48 1019.7
20260502230303 62 27 2.0 7.0 0.00 0.00 0.00 45 1019.7
20260502225837 63 325 0.0 2.0 0.00 0.00 0.00 42 1019.8
20260502225308 63 259 0.0 3.0 0.00 0.00 0.00 44 1019.8
20260502224808 63 244 0.0 3.0 0.00 0.00 0.00 42 1019.8
20260502224302 63 315 0.0 4.0 0.00 0.00 0.00 44 1019.8
20260502223818 63 281 0.0 4.0 0.00 0.00 0.00 45 1019.8
20260502223333 64 349 1.0 4.0 0.00 0.00 0.00 47 1019.8
20260502222806 63 311 1.0 5.0 0.00 0.00 0.00 43 1019.8
20260502222320 63 291 0.0 5.0 0.00 0.00 0.00 46 1019.8
20260502221815 64 290 2.0 5.0 0.00 0.00 0.00 46 1019.9
20260502221310 64 325 1.0 4.0 0.00 0.00 0.00 46 1019.9
20260502220809 64 23 0.0 6.0 0.00 0.00 0.00 44 1019.9
20260502220304 64 309 0.0 7.0 0.00 0.00 0.00 46 1019.9
20260502215819 64 2 1.0 7.0 0.00 0.00 0.00 50 1019.9
20260502215313 64 359 0.0 5.0 0.00 0.00 0.00 46 1019.9
20260502214807 63 29 0.0 5.0 0.00 0.00 0.00 45 1019.9
20260502214322 63 56 1.0 5.0 0.00 0.00 0.00 49 1020.0
20260502213817 64 324 2.0 7.0 0.00 0.00 0.00 45 1020.0
20260502213312 64 289 2.0 5.0 0.00 0.00 0.00 49 1019.8
20260502212827 64 305 2.0 4.0 0.00 0.00 0.00 44 1019.9
20260502212305 64 267 0.0 3.0 0.00 0.00 0.00 46 1020.0
20260502211818 63 336 0.0 6.0 0.00 0.00 0.00 48 1020.2
20260502211333 62 11 1.0 6.0 0.00 0.00 0.00 47 1020.1
20260502210807 62 315 0.0 7.0 0.00 0.00 0.00 47 1020.2
20260502210322 63 6 0.0 7.0 0.00 0.00 0.00 47 1020.2
20260502205816 64 305 2.0 6.0 0.00 0.00 0.00 47 1020.2
20260502205311 64 203 0.0 8.0 0.00 0.00 0.00 50 1020.3
20260502204805 64 294 1.0 9.0 0.00 0.00 0.00 47 1020.3
20260502204304 64 335 2.0 6.0 0.00 0.00 0.00 47 1020.2
20260502203817 64 180 0.0 4.0 0.00 0.00 0.00 45 1020.3